Terug naar catalogus

CZ-6A DEB

ActiefSSO
NORAD 55191·DEBRIS·🇨🇳 China

Gelanceerd Nov 11, 2022 vanaf Taiyuan Satellite Launch Center

Loading…

Volgende Passages (komende 24 uur)

TLE

VersSource: Space-Track

Epoch: Sep 14, 2026, 12:21 UTC

1 55191U 22151VG  26257.51495639  .00000511  00000-0  23665-3 0  9998
2 55191  98.7181 270.0288 0049348  81.1341 279.5421 14.24459759194150

Volg CZ-6A DEB in realtime met AllMySat

Download on the App Store